Wind_Speed
19 20 22 24 23 25 28 30 32 34 38 41 42 43 41 38 36 34 32 33 37 38 38 39 40 41 42 44 46 46 47 48 50 52 53 54 55 56 57 58 60 61 61 60
16 18 20 22 23 23 26 29 31 34 36 38 38 40 40 39 35 34 33 33 33 33 35 37 37 39 41 43 45 46 47 48 50 52 53 54 56 56 56 56 56 57 57 57
13 16 17 20 21 23 23 26 28 29 32 34 34 33 34 34 35 34 33 32 32 32 33 34 36 37 37 37 38 41 44 46 47 49 51 52 52 52 52 52 52 53 53 54
10 12 15 16 16 18 21 22 22 24 26 27 28 28 29 30 31 32 32 32 32 32 32 33 34 34 35 37 38 38 40 42 44 46 48 48 49 49 49 49 49 50 51 51
8 10 11 13 15 16 19 20 20 21 22 24 26 27 27 27 28 28 28 28 29 29 29 30 31 33 34 36 37 39 40 41 42 43 45 45 45 46 47 47 47 48 49 50
8 9 9 11 13 15 16 18 18 19 20 21 21 22 23 23 24 25 25 26 27 27 28 29 31 32 34 35 36 36 37 38 39 40 41 42 43 44 44 45 45 46 46 46
9 8 8 9 11 13 15 16 16 17 17 17 18 19 19 20 21 22 22 23 24 25 26 28 29 30 31 32 33 34 34 35 36 37 38 39 40 41 42 42 43 43 43 43
11 9 8 9 10 12 13 13 14 14 14 14 14 15 15 16 17 18 19 20 22 23 24 25 27 27 28 29 30 30 31 32 34 35 36 36 37 38 38 38 38 38 38 38
11 10 9 9 9 10 11 11 11 12 12 12 12 13 14 14 15 16 18 19 20 21 22 23 24 25 26 27 27 28 29 30 31 31 32 32 33 33 33 33 32 32 31 30
12 11 10 9 9 9 10 9 9 10 10 11 11 12 13 13 14 15 16 17 18 20 20 22 23 23 24 24 24 25 25 26 27 27 28 28 28 27 27 27 26 25 24 22
13 12 11 10 9 9 8 9 9 9 9 10 10 11 12 12 13 14 15 16 17 18 19 20 20 20 21 21 21 22 23 24 24 24 24 24 23 22 21 20 20 19 18 16
14 13 12 11 10 9 8 8 8 9 9 9 9 10 11 12 12 13 14 15 16 17 17 18 18 18 18 19 19 20 21 21 20 20 20 20 19 19 18 17 16 15 14 13
16 14 12 11 10 9 9 8 8 8 8 8 9 10 10 10 10 11 13 15 15 16 16 16 16 16 16 17 18 18 18 18 17 17 17 16 16 16 15 14 13 12 11 10
16 14 12 11 10 9 8 8 8 8 8 8 9 9 9 10 11 13 14 14 15 15 15 15 15 15 15 15 16 16 16 16 15 15 14 13 13 13 12 12 12 11 10 9
16 15 13 11 10 9 8 8 7 7 7 8 8 9 9 11 12 13 14 15 15 14 14 14 14 14 14 14 14 14 14 14 14 13 13 12 12 11 11 11 11 11 10 11
17 15 13 11 10 8 8 7 7 6 7 8 8 9 10 12 13 14 14 14 14 14 14 14 14 14 14 13 13 13 12 13 13 12 12 12 11 11 11 11 11 11 11 11
17 15 13 11 9 8 7 7 6 6 7 8 8 10 11 12 14 14 15 15 15 15 15 14 14 13 13 13 12 12 12 11 11 11 11 11 11 11 11 11 11 11 12 12
17 14 12 11 9 7 7 6 6 6 7 8 9 10 12 13 14 15 15 16 16 16 15 15 14 13 12 11 11 11 10 10 10 10 10 10 10 11 11 11 11 11 12 12
17 14 12 10 9 7 6 5 5 6 7 8 9 11 12 13 14 15 16 16 16 16 16 14 13 12 11 10 10 9 9 9 9 9 9 9 10 10 10 10 10 10 11 11
17 14 12 10 8 7 6 5 5 6 6 8 9 10 12 14 15 16 16 17 17 17 16 15 14 12 11 9 9 8 8 8 8 8 9 9 8 8 8 9 9 9 9 10
16 14 11 9 7 6 5 5 5 5 6 7 8 9 11 14 16 17 18 18 18 17 16 16 15 13 11 9 8 7 8 8 7 8 8 8 7 7 7 7 7 8 8 8
16 13 11 9 7 6 5 4 4 5 5 6 7 9 11 13 15 16 17 18 18 17 16 16 16 14 11 9 8 7 7 7 7 7 7 7 6 6 6 6 6 6 6 6
15 13 10 8 6 5 5 4 4 4 5 5 7 8 10 13 15 16 17 18 18 17 17 17 16 15 13 11 9 8 8 8 7 7 7 7 6 6 5 5 5 5 6 6
15 13 10 8 6 5 4 4 3 4 4 5 6 7 9 11 14 16 17 17 17 17 18 18 17 16 14 12 10 9 8 8 8 8 7 7 7 6 6 6 6 6 6 6
14 12 10 7 6 5 4 4 3 3 3 4 5 6 8 10 12 15 16 17 17 17 17 17 17 17 15 13 12 10 9 8 8 8 8 8 8 7 7 7 7 7 7 8
13 11 9 7 6 5 4 4 4 4 3 3 3 4 6 8 10 13 15 17 18 17 16 16 16 16 16 16 15 14 13 11 10 9 8 9 9 9 9 10 10 10 10 10
13 11 9 7 6 5 5 5 5 5 4 3 3 3 4 5 8 11 13 16 17 16 15 15 15 16 17 17 17 16 16 14 13 11 11 11 11 12 12 12 12 12 12 12
Wind_Direction
228 231 229 229 233 233 232 233 234 235 239 244 247 251 256 261 264 264 261 257 256 257 258 260 259 259 261 262 262 263 266 269 272 274 276 277 279 280 281 281 282 284 285 286
242 245 240 237 239 241 239 240 241 241 243 247 251 255 258 259 260 264 264 262 263 266 268 269 267 267 266 266 266 267 269 271 273 275 277 278 279 280 282 282 282 283 285 287
250 253 254 250 248 248 248 246 246 248 249 252 256 257 260 263 267 272 273 270 273 277 277 276 275 273 273 273 274 274 274 275 276 277 277 278 279 280 282 284 286 287 288 289
265 264 262 260 261 258 258 259 257 257 257 258 261 266 270 274 276 279 283 282 283 283 285 284 282 279 277 279 280 279 278 278 278 278 280 281 284 286 287 288 288 289 289 288
289 280 275 272 275 275 272 273 269 271 273 274 276 279 281 283 284 286 286 287 289 289 288 287 285 284 282 282 282 282 283 284 285 286 288 289 290 290 291 290 290 289 289 289
317 300 285 280 280 281 279 279 279 280 282 282 281 282 284 285 287 287 287 289 289 288 288 287 285 284 285 287 287 287 288 289 291 292 292 291 291 291 291 290 290 290 290 289
334 319 303 290 285 285 286 285 284 285 286 287 286 287 289 289 289 288 289 289 289 289 289 289 289 290 291 292 293 294 294 295 296 295 295 294 293 292 292 292 292 291 291 291
346 336 320 303 293 291 291 290 289 291 291 291 291 292 291 292 293 292 292 293 294 294 293 294 294 294 295 296 298 299 299 299 299 298 297 296 295 295 295 295 295 294 294 294
352 343 329 314 305 300 297 296 294 294 295 296 297 299 299 300 301 299 299 298 298 298 298 298 298 299 300 301 302 303 303 304 303 302 301 300 299 299 299 299 299 300 299 299
353 346 337 325 315 310 307 306 305 303 303 303 302 301 302 303 304 304 304 303 303 304 304 305 304 305 305 306 308 309 310 311 311 309 308 308 307 307 306 306 306 308 308 308
355 349 344 337 327 318 314 314 313 312 310 308 306 305 307 308 308 308 309 309 310 310 310 310 310 311 313 314 315 316 317 318 319 318 318 318 318 317 317 318 319 319 320 320
353 349 346 341 338 334 328 325 323 322 322 320 320 319 319 318 318 319 319 318 318 317 318 318 318 319 321 321 322 324 325 326 326 326 325 327 328 329 330 330 332 333 335 336
352 349 347 344 341 338 333 330 330 331 332 332 331 331 332 333 332 330 328 326 326 326 326 325 325 326 328 329 330 331 333 334 334 335 336 336 337 339 342 344 347 350 352 357
352 349 346 343 342 340 339 337 338 341 344 344 344 343 342 341 338 335 334 334 333 332 332 332 331 331 333 334 336 339 342 344 345 346 348 348 349 352 354 356 2 9 17 30
352 350 348 344 342 343 343 343 344 348 351 352 351 349 346 343 341 341 340 338 338 337 337 338 337 336 337 337 340 344 348 352 355 358 1 2 4 7 10 15 23 34 47 58
352 350 347 345 342 342 342 346 347 350 354 355 354 352 349 347 347 346 345 345 344 343 342 342 341 341 341 342 345 349 353 359 3 6 9 13 17 22 28 34 40 49 58 67
351 349 347 345 343 342 344 347 351 355 357 357 356 356 355 354 353 352 351 349 349 348 346 343 341 341 344 345 347 351 356 3 8 12 18 24 28 33 38 43 49 57 65 71
352 349 347 344 343 342 345 350 354 357 359 359 0 1 1 359 358 357 356 356 354 349 345 342 340 342 345 349 352 355 359 7 10 14 22 29 34 38 43 48 54 61 68 74
351 350 347 344 343 344 347 352 358 360 360 1 3 4 4 4 3 1 360 357 354 351 348 345 345 347 348 351 356 359 4 10 13 17 23 30 35 39 44 50 57 64 70 76
350 350 347 343 341 341 344 346 352 356 358 1 3 6 8 8 7 5 3 0 359 358 358 356 352 350 349 349 355 1 6 10 13 17 23 29 34 41 48 54 60 67 74 80
347 348 347 343 339 339 339 340 344 352 357 1 5 8 10 10 9 9 8 6 4 5 6 6 5 3 1 359 2 7 9 10 14 21 25 30 36 43 50 57 64 71 79 86
344 346 345 342 338 335 335 333 336 345 353 359 5 8 10 11 11 10 9 9 10 11 12 13 14 15 14 15 17 17 14 17 24 29 30 33 39 48 57 63 69 75 83 92
340 342 342 338 333 328 326 325 328 337 346 356 2 7 10 12 13 13 13 14 16 18 19 19 18 18 20 23 27 29 29 32 37 39 38 39 45 55 63 69 74 81 88 95
336 338 337 334 327 320 317 317 317 324 335 350 357 2 8 13 15 15 15 18 20 21 23 23 21 21 23 27 31 35 36 37 40 41 43 46 53 62 69 74 78 84 92 98
330 333 333 328 319 312 304 301 301 307 319 339 349 356 6 14 17 18 20 23 25 26 26 25 24 26 30 35 39 40 41 42 44 47 50 54 60 68 76 79 83 87 92 97
324 327 326 321 310 300 290 281 279 284 290 310 332 346 0 12 17 19 23 26 27 28 27 27 27 31 37 42 44 44 44 46 49 54 60 64 69 75 80 83 85 87 91 95
316 317 317 311 303 290 278 269 266 266 268 277 290 315 345 6 16 21 25 28 29 30 29 30 33 38 42 44 46 46 47 49 54 61 68 73 76 79 81 85 87 89 92 95
Height
5755 5756 5757 5758 5760 5762 5763 5765 5767 5768 5769 5769 5770 5770 5771 5771 5770 5768 5767 5767 5767 5767 5766 5766 5766 5767 5767 5766 5766 5765 5763 5762 5760 5758 5755 5752 5749 5745 5742 5739 5735 5731 5726 5722
5751 5752 5753 5754 5756 5757 5758 5759 5760 5761 5762 5762 5762 5763 5763 5763 5762 5761 5760 5760 5758 5758 5757 5757 5756 5757 5756 5756 5755 5754 5752 5751 5748 5746 5743 5739 5736 5733 5729 5725 5721 5717 5713 5708
5747 5747 5748 5750 5750 5751 5752 5752 5754 5754 5755 5755 5754 5754 5754 5754 5753 5752 5752 5751 5750 5749 5749 5749 5748 5747 5746 5745 5743 5742 5740 5738 5736 5733 5730 5726 5723 5719 5715 5711 5707 5703 5698 5694
5744 5745 5744 5747 5745 5746 5746 5746 5747 5747 5748 5747 5747 5747 5746 5746 5745 5744 5744 5743 5742 5742 5741 5740 5739 5738 5737 5735 5733 5731 5728 5726 5723 5720 5716 5713 5709 5705 5701 5698 5693 5688 5683 5678
5742 5741 5741 5741 5741 5741 5741 5740 5740 5740 5741 5741 5740 5740 5739 5738 5738 5737 5737 5736 5735 5734 5733 5732 5730 5729 5727 5725 5723 5720 5717 5714 5711 5707 5704 5700 5696 5692 5688 5683 5679 5674 5669 5664
5740 5739 5738 5739 5737 5736 5737 5735 5735 5735 5735 5735 5734 5735 5734 5733 5732 5731 5730 5729 5728 5727 5725 5724 5722 5720 5718 5715 5713 5710 5707 5703 5699 5695 5692 5688 5683 5679 5674 5670 5665 5660 5655 5650
5737 5736 5735 5735 5733 5732 5733 5732 5730 5729 5729 5729 5729 5729 5728 5727 5726 5725 5724 5723 5721 5719 5718 5716 5714 5712 5709 5706 5703 5700 5697 5693 5689 5684 5680 5675 5671 5666 5662 5657 5652 5647 5642 5637
5735 5733 5734 5731 5730 5729 5728 5726 5725 5725 5724 5724 5724 5723 5722 5721 5720 5719 5718 5717 5715 5713 5711 5709 5707 5704 5701 5698 5694 5691 5687 5683 5679 5674 5669 5664 5659 5654 5650 5644 5639 5635 5630 5625
5734 5733 5730 5727 5726 5725 5724 5723 5722 5721 5720 5720 5719 5718 5717 5716 5715 5714 5712 5711 5709 5707 5705 5702 5700 5697 5693 5690 5687 5683 5679 5674 5669 5664 5659 5654 5649 5644 5639 5634 5629 5625 5620 5615
5731 5729 5727 5725 5723 5722 5720 5719 5718 5718 5717 5716 5715 5714 5713 5712 5710 5709 5707 5705 5703 5701 5698 5696 5693 5690 5687 5683 5679 5675 5671 5666 5661 5656 5651 5646 5641 5636 5631 5626 5622 5617 5612 5608
5729 5727 5724 5723 5721 5719 5718 5716 5715 5715 5714 5713 5712 5710 5709 5708 5706 5704 5703 5701 5698 5696 5693 5690 5687 5684 5680 5676 5673 5669 5664 5660 5654 5649 5644 5639 5634 5630 5625 5621 5616 5612 5608 5604
5728 5725 5723 5721 5718 5717 5715 5714 5713 5712 5711 5710 5708 5707 5706 5704 5702 5701 5699 5696 5694 5691 5688 5685 5682 5678 5675 5671 5668 5664 5659 5654 5649 5645 5640 5635 5631 5626 5622 5618 5613 5609 5606 5602
5726 5723 5721 5718 5717 5715 5714 5712 5711 5710 5709 5707 5706 5705 5703 5701 5700 5698 5696 5693 5690 5687 5684 5681 5678 5674 5671 5667 5663 5659 5655 5651 5646 5642 5637 5633 5629 5624 5620 5616 5612 5609 5605 5602
5724 5721 5719 5717 5715 5714 5712 5711 5709 5708 5707 5705 5704 5703 5701 5699 5698 5695 5693 5690 5687 5684 5681 5677 5674 5671 5667 5664 5660 5657 5653 5648 5644 5640 5636 5632 5628 5624 5620 5617 5613 5610 5607 5604
5723 5720 5718 5715 5714 5712 5711 5709 5708 5707 5706 5704 5703 5701 5700 5698 5696 5693 5690 5687 5684 5681 5678 5675 5671 5668 5665 5661 5658 5654 5651 5647 5643 5639 5636 5632 5628 5625 5621 5618 5615 5612 5609 5607
5721 5718 5716 5714 5712 5711 5710 5709 5708 5706 5705 5704 5702 5701 5699 5697 5694 5691 5688 5685 5682 5678 5675 5672 5669 5666 5663 5659 5656 5653 5650 5646 5643 5640 5636 5633 5630 5626 5623 5620 5617 5615 5613 5611
5720 5717 5715 5713 5711 5710 5709 5708 5707 5706 5705 5703 5702 5700 5698 5695 5693 5690 5686 5683 5680 5676 5673 5670 5667 5664 5661 5658 5654 5652 5649 5646 5643 5640 5637 5634 5631 5628 5626 5623 5621 5618 5617 5615
5718 5716 5713 5712 5710 5709 5708 5707 5706 5705 5704 5703 5701 5699 5697 5694 5691 5688 5685 5682 5678 5675 5671 5668 5665 5662 5659 5656 5653 5651 5648 5646 5643 5641 5638 5636 5633 5630 5628 5626 5624 5622 5621 5619
5717 5714 5712 5710 5709 5708 5707 5706 5705 5705 5704 5702 5701 5699 5696 5694 5691 5688 5684 5681 5677 5673 5670 5666 5662 5659 5657 5655 5652 5650 5648 5646 5644 5642 5639 5637 5635 5632 5631 5629 5627 5626 5624 5623
5715 5713 5711 5709 5708 5707 5706 5705 5705 5704 5703 5702 5700 5698 5696 5694 5691 5687 5684 5680 5676 5672 5668 5664 5661 5658 5655 5653 5652 5650 5648 5646 5644 5642 5640 5638 5636 5635 5633 5631 5630 5629 5628 5627
5714 5712 5710 5708 5707 5706 5705 5705 5704 5704 5703 5702 5700 5699 5696 5694 5691 5687 5684 5680 5676 5672 5668 5664 5660 5657 5654 5653 5651 5650 5648 5647 5645 5643 5641 5639 5638 5636 5635 5634 5633 5632 5631 5630
5712 5710 5708 5707 5706 5705 5705 5704 5704 5703 5703 5702 5700 5699 5697 5694 5691 5688 5685 5681 5677 5673 5669 5665 5661 5658 5655 5653 5651 5650 5648 5647 5645 5643 5642 5640 5639 5638 5637 5636 5635 5634 5633 5633
5710 5708 5707 5705 5704 5704 5704 5703 5703 5703 5702 5701 5700 5699 5697 5695 5692 5689 5686 5682 5678 5674 5670 5666 5663 5659 5656 5654 5652 5650 5649 5647 5646 5644 5643 5642 5640 5639 5638 5637 5637 5636 5635 5635
5708 5707 5705 5704 5703 5703 5702 5702 5702 5702 5702 5701 5700 5699 5697 5695 5693 5690 5687 5683 5680 5676 5673 5669 5665 5662 5659 5656 5654 5652 5651 5649 5647 5646 5645 5643 5642 5641 5640 5639 5638 5638 5637 5637
5706 5705 5703 5702 5702 5701 5701 5701 5701 5701 5701 5701 5700 5699 5698 5696 5694 5692 5689 5685 5682 5678 5675 5672 5669 5665 5662 5659 5656 5654 5653 5651 5649 5648 5646 5645 5644 5643 5642 5641 5640 5640 5639 5639
5704 5702 5701 5700 5700 5700 5700 5700 5700 5700 5700 5700 5699 5699 5698 5696 5695 5693 5690 5687 5684 5681 5678 5675 5672 5669 5665 5662 5659 5657 5655 5653 5651 5650 5648 5647 5646 5645 5644 5643 5643 5642 5642 5642
5701 5700 5699 5698 5698 5698 5698 5698 5699 5699 5699 5699 5699 5698 5698 5697 5696 5694 5692 5689 5687 5684 5682 5679 5676 5672 5669 5666 5663 5661 5659 5656 5654 5653 5651 5650 5649 5648 5648 5647 5646 5646 5646 5646